Total_Precipitation_Accumulation
0.67 0.76 0.85 0.82 0.85 1.06 1.36 1.29 1.25 1.17 1.10 1.47 1.38 0.60 0.13 0.05 0.01 0.00 0.01 0.01 0.01 0.01 0.00 0.01 0.00 0.00 0.00 0.00 0.00 0.01 0.01 0.06 0.04 0.00 0.00 0.00 0.02 0.13 0.34 0.45 0.43 0.31 0.27 0.13
0.48 0.56 0.70 0.60 0.64 0.68 0.99 1.21 1.38 1.18 1.06 0.96 0.56 0.19 0.07 0.06 0.05 0.02 0.02 0.02 0.05 0.03 0.01 0.03 0.01 0.01 0.00 0.00 0.00 0.01 0.02 0.05 0.04 0.01 0.00 0.03 0.09 0.12 0.20 0.31 0.37 0.24 0.44 0.15
0.32 0.45 0.50 0.53 0.51 0.55 0.68 0.98 1.23 1.13 0.92 0.55 0.18 0.13 0.12 0.11 0.10 0.05 0.02 0.02 0.03 0.06 0.06 0.03 0.03 0.01 0.00 0.00 0.00 0.00 0.01 0.01 0.02 0.01 0.00 0.03 0.02 0.02 0.05 0.16 0.31 0.16 0.17 0.03
0.22 0.33 0.45 0.52 0.50 0.62 0.53 0.74 0.87 0.49 0.52 0.36 0.16 0.11 0.11 0.11 0.18 0.09 0.04 0.04 0.03 0.04 0.09 0.07 0.03 0.01 0.01 0.01 0.00 0.00 0.02 0.03 0.01 0.00 0.01 0.01 0.01 0.00 0.00 0.01 0.04 0.11 0.04 0.01
0.25 0.32 0.50 0.60 0.67 0.55 0.47 0.63 0.45 0.22 0.10 0.12 0.20 0.27 0.25 0.16 0.20 0.15 0.11 0.08 0.08 0.08 0.11 0.10 0.08 0.05 0.04 0.02 0.02 0.05 0.09 0.21 0.16 0.09 0.02 0.02 0.04 0.01 0.00 0.00 0.00 0.01 0.01 0.02
0.33 0.38 0.42 0.59 0.66 0.59 0.53 0.47 0.16 0.12 0.30 0.28 0.30 0.26 0.14 0.11 0.10 0.14 0.08 0.06 0.11 0.14 0.10 0.04 0.03 0.02 0.03 0.02 0.03 0.05 0.09 0.14 0.16 0.14 0.03 0.08 0.13 0.00 0.00 0.00 0.00 0.01 0.03 0.02
0.30 0.31 0.32 0.35 0.41 0.42 0.40 0.31 0.16 0.20 0.40 0.26 0.17 0.11 0.11 0.11 0.10 0.10 0.07 0.06 0.05 0.04 0.01 0.00 0.00 0.00 0.00 0.00 0.00 0.01 0.03 0.04 0.09 0.09 0.06 0.15 0.03 0.00 0.00 0.00 0.00 0.00 0.00 0.00
0.19 0.15 0.19 0.21 0.26 0.23 0.29 0.30 0.25 0.28 0.31 0.26 0.24 0.19 0.17 0.17 0.13 0.07 0.04 0.02 0.01 0.00 0.00 0.00 0.00 0.00 0.00 0.00 0.00 0.00 0.00 0.02 0.04 0.06 0.05 0.03 0.00 0.00 0.00 0.00 0.01 0.01 0.00 0.00
0.17 0.14 0.15 0.15 0.14 0.23 0.28 0.20 0.19 0.22 0.24 0.21 0.13 0.11 0.07 0.07 0.04 0.03 0.01 0.00 0.00 0.00 0.01 0.03 0.03 0.02 0.01 0.00 0.00 0.00 0.00 0.01 0.12 0.17 0.30 0.17 0.01 0.00 0.00 0.00 0.06 0.01 0.00 0.00
0.15 0.09 0.11 0.13 0.10 0.13 0.20 0.18 0.08 0.06 0.06 0.05 0.02 0.03 0.04 0.01 0.00 0.01 0.01 0.01 0.00 0.01 0.02 0.04 0.04 0.03 0.01 0.01 0.01 0.01 0.02 0.05 0.08 0.08 0.11 0.04 0.00 0.00 0.00 0.01 0.01 0.00 0.01 0.02
0.07 0.06 0.04 0.04 0.05 0.04 0.05 0.08 0.01 0.02 0.04 0.02 0.00 0.00 0.00 0.01 0.02 0.04 0.06 0.04 0.03 0.04 0.06 0.06 0.05 0.04 0.01 0.01 0.00 0.01 0.02 0.03 0.04 0.06 0.07 0.03 0.00 0.00 0.01 0.01 0.00 0.00 0.00 0.00
0.02 0.01 0.01 0.01 0.02 0.05 0.03 0.08 0.02 0.01 0.05 0.01 0.00 0.00 0.00 0.00 0.01 0.04 0.06 0.05 0.04 0.06 0.10 0.09 0.10 0.07 0.05 0.04 0.02 0.00 0.01 0.02 0.03 0.04 0.02 0.00 0.00 0.00 0.00 0.00 0.00 0.00 0.00 0.00
0.00 0.00 0.00 0.00 0.00 0.03 0.04 0.16 0.12 0.04 0.07 0.04 0.01 0.00 0.00 0.00 0.00 0.00 0.02 0.01 0.03 0.07 0.09 0.15 0.13 0.09 0.04 0.04 0.02 0.01 0.00 0.00 0.02 0.02 0.00 0.00 0.00 0.00 0.00 0.00 0.00 0.00 0.00 0.00
0.00 0.00 0.00 0.01 0.04 0.05 0.03 0.07 0.10 0.10 0.23 0.13 0.02 0.01 0.00 0.00 0.00 0.00 0.00 0.01 0.04 0.06 0.11 0.17 0.11 0.05 0.03 0.02 0.02 0.01 0.01 0.01 0.02 0.02 0.00 0.01 0.00 0.00 0.00 0.00 0.00 0.01 0.01 0.01
0.00 0.00 0.00 0.00 0.00 0.03 0.08 0.16 0.16 0.21 0.19 0.15 0.03 0.01 0.00 0.00 0.00 0.01 0.05 0.04 0.06 0.12 0.17 0.12 0.04 0.02 0.06 0.03 0.03 0.01 0.00 0.01 0.04 0.02 0.00 0.04 0.01 0.01 0.00 0.01 0.01 0.01 0.01 0.00
0.00 0.00 0.00 0.00 0.01 0.03 0.12 0.11 0.09 0.05 0.04 0.09 0.01 0.00 0.00 0.00 0.00 0.00 0.02 0.05 0.08 0.12 0.12 0.06 0.02 0.01 0.12 0.11 0.01 0.00 0.00 0.00 0.00 0.00 0.02 0.06 0.05 0.01 0.00 0.01 0.00 0.00 0.01 0.01
0.00 0.00 0.00 0.04 0.02 0.09 0.12 0.07 0.14 0.01 0.03 0.06 0.02 0.01 0.00 0.01 0.02 0.02 0.01 0.01 0.03 0.08 0.11 0.05 0.01 0.01 0.12 0.12 0.02 0.00 0.00 0.00 0.00 0.03 0.16 0.15 0.03 0.01 0.00 0.00 0.00 0.01 0.01 0.01
0.00 0.00 0.01 0.03 0.00 0.02 0.04 0.01 0.00 0.01 0.04 0.03 0.03 0.01 0.01 0.01 0.03 0.04 0.05 0.07 0.06 0.08 0.04 0.01 0.01 0.01 0.06 0.08 0.00 0.00 0.00 0.00 0.03 0.06 0.07 0.12 0.10 0.06 0.03 0.03 0.05 0.09 0.05 0.02
0.01 0.02 0.01 0.02 0.07 0.13 0.07 0.00 0.00 0.02 0.07 0.08 0.03 0.01 0.03 0.02 0.01 0.02 0.05 0.06 0.06 0.03 0.06 0.01 0.04 0.04 0.07 0.01 0.00 0.01 0.02 0.14 0.21 0.13 0.06 0.03 0.05 0.06 0.05 0.04 0.07 0.10 0.05 0.02
0.02 0.02 0.05 0.03 0.04 0.01 0.00 0.02 0.05 0.06 0.08 0.05 0.02 0.00 0.01 0.02 0.06 0.08 0.07 0.10 0.05 0.07 0.03 0.04 0.17 0.05 0.01 0.02 0.06 0.12 0.19 0.21 0.18 0.28 0.12 0.04 0.07 0.05 0.04 0.06 0.12 0.18 0.13 0.07
0.03 0.05 0.08 0.02 0.00 0.01 0.02 0.03 0.04 0.05 0.06 0.02 0.00 0.01 0.05 0.06 0.12 0.20 0.14 0.14 0.16 0.21 0.04 0.12 0.14 0.28 0.22 0.13 0.14 0.15 0.16 0.11 0.07 0.09 0.05 0.09 0.28 0.33 0.20 0.12 0.11 0.16 0.12 0.10
0.04 0.05 0.03 0.02 0.01 0.02 0.02 0.02 0.03 0.03 0.02 0.03 0.06 0.12 0.17 0.15 0.22 0.38 0.25 0.24 0.18 0.09 0.12 0.26 0.34 0.50 0.13 0.08 0.06 0.04 0.05 0.04 0.05 0.08 0.23 0.21 0.26 0.29 0.24 0.19 0.17 0.12 0.10 0.09
0.01 0.03 0.07 0.04 0.03 0.02 0.01 0.00 0.02 0.04 0.07 0.04 0.08 0.21 0.34 0.28 0.27 0.32 0.18 0.17 0.06 0.08 0.18 0.32 0.58 0.16 0.02 0.03 0.03 0.01 0.00 0.02 0.04 0.13 0.12 0.16 0.14 0.12 0.16 0.10 0.07 0.06 0.04 0.06
0.10 0.02 0.00 0.00 0.01 0.00 0.00 0.01 0.10 0.11 0.03 0.00 0.05 0.21 0.34 0.25 0.41 0.13 0.14 0.05 0.10 0.18 0.35 0.56 0.18 0.02 0.01 0.01 0.01 0.01 0.01 0.00 0.03 0.10 0.08 0.08 0.12 0.07 0.05 0.06 0.05 0.05 0.04 0.04
0.09 0.02 0.00 0.00 0.00 0.00 0.01 0.01 0.00 0.01 0.00 0.01 0.04 0.07 0.21 0.22 0.30 0.18 0.21 0.23 0.32 0.50 0.42 0.26 0.10 0.01 0.00 0.01 0.01 0.01 0.01 0.00 0.02 0.05 0.06 0.06 0.07 0.04 0.02 0.02 0.02 0.03 0.04 0.06
0.05 0.01 0.00 0.00 0.00 0.01 0.01 0.00 0.00 0.00 0.00 0.01 0.06 0.13 0.12 0.23 0.27 0.39 0.37 0.40 0.45 0.32 0.18 0.08 0.02 0.00 0.00 0.00 0.00 0.01 0.01 0.01 0.02 0.03 0.03 0.07 0.08 0.04 0.03 0.02 0.03 0.03 0.06 0.10
0.00 0.00 0.00 0.00 0.00 0.01 0.01 0.00 0.00 0.01 0.02 0.04 0.07 0.11 0.08 0.09 0.07 0.09 0.23 0.20 0.13 0.05 0.03 0.02 0.02 0.00 0.00 0.00 0.01 0.00 0.00 0.00 0.01 0.01 0.03 0.06 0.03 0.04 0.07 0.07 0.07 0.08 0.11 0.16